WXM80 ListenWXM80 Stop

You find our weather info also at:

UK Metoffice

WeatherCloud

Weather Underground

Northeastern Weather Network

AWEKAS

Citizen Weather Observer Program (CWOP)

HAMweather, WeatherForYou, PWS Weather


Weather Underground History page Text

Daily Summary for May 21, 2017 Units:  Metric    English   Both
« Previous Day
Next Day »
Daily Weekly Monthly Yearly Custom
  High: Low: Average:
Temperature: 21.6 °C 7.8 °C 14.6 °C
Dew Point: 14.1 °C 2.8 °C 7.6 °C
Humidity: 96 % 30 % 66 %
Wind Speed: 14.3 km/h 0 km/h 2.4 km/h
Wind Gust: 22.2 km/h - -
Wind:- - ESE
Pressure: 1028 hPa 1023.6 hPa -
Precipitation: 0 mm    
Historical Graphs
 
 
Tabular Data for May 21, 2017
Time Temperature Dew Point Pressure Wind Wind Speed Wind Gust Humidity Rainfall Rate (Hourly)
00:03 11.1 °C 7.8 °C 1026.3 hPa Calm   1.9 km/h 80 % 0 mm
00:08 11.1 °C 7.7 °C 1026.3 hPa Calm     80 % 0 mm
00:13 11 °C 7.9 °C 1026 hPa Calm     81 % 0 mm
00:18 10.9 °C 7.6 °C 1026.3 hPa Calm     80 % 0 mm
00:23 10.9 °C 7.6 °C 1026 hPa Calm     80 % 0 mm
00:28 10.8 °C 7.5 °C 1026 hPa Calm     80 % 0 mm
00:33 10.7 °C 7.6 °C 1026 hPa Calm   1.9 km/h 81 % 0 mm
00:38 10.7 °C 7.6 °C 1026 hPa Calm     81 % 0 mm
00:43 10.6 °C 7.5 °C 1026.3 hPa Calm     81 % 0 mm
00:48 10.6 °C 7.4 °C 1026.3 hPa Calm     81 % 0 mm
00:53 10.5 °C 7.6 °C 1026.3 hPa Calm     82 % 0 mm
00:58 10.4 °C 7.5 °C 1026.3 hPa Calm     82 % 0 mm
01:04 10.3 °C 7.6 °C 1026.3 hPa Calm     83 % 0 mm
01:09 10.3 °C 7.5 °C 1026.3 hPa Calm     83 % 0 mm
01:14 10.3 °C 7.5 °C 1026.3 hPa Calm     83 % 0 mm
01:19 10.2 °C 7.4 °C 1026 hPa Calm     83 % 0 mm
01:24 10.2 °C 7.6 °C 1026 hPa Calm     84 % 0 mm
01:29 10.1 °C 7.6 °C 1026 hPa Calm     84 % 0 mm
01:34 10.1 °C 7.5 °C 1026 hPa Calm     84 % 0 mm
01:39 10.1 °C 7.5 °C 1025.6 hPa Calm     84 % 0 mm
01:44 10 °C 7.6 °C 1025.6 hPa Calm   1.9 km/h 85 % 0 mm
01:49 9.9 °C 7.6 °C 1025.6 hPa Calm     85 % 0 mm
01:54 9.9 °C 7.5 °C 1025.6 hPa Calm     85 % 0 mm
01:59 9.8 °C 7.4 °C 1025.6 hPa Calm     85 % 0 mm
02:04 9.8 °C 7.4 °C 1025.3 hPa Calm     85 % 0 mm
02:09 9.8 °C 7.4 °C 1025.6 hPa Calm     85 % 0 mm
02:14 9.7 °C 7.3 °C 1025.6 hPa Calm     85 % 0 mm
02:19 9.7 °C 7.3 °C 1025.6 hPa Calm     85 % 0 mm
02:24 9.7 °C 7.3 °C 1025.6 hPa Calm     85 % 0 mm
02:29 9.6 °C 7.4 °C 1025.3 hPa Calm     86 % 0 mm
02:34 9.6 °C 7.3 °C 1025.6 hPa Calm     86 % 0 mm
02:40 9.5 °C 7.3 °C 1025.6 hPa Calm     86 % 0 mm
02:45 9.4 °C 7.2 °C 1025.6 hPa Calm     86 % 0 mm
02:50 9.4 °C 7.2 °C 1025.6 hPa Calm     86 % 0 mm
02:55 9.3 °C 7.1 °C 1025.6 hPa Calm     86 % 0 mm
03:00 9.3 °C 7.1 °C 1025.6 hPa Calm     86 % 0 mm
03:05 9.3 °C 7.1 °C 1025.6 hPa Calm     86 % 0 mm
03:10 9.2 °C 7 °C 1025.6 hPa Calm     86 % 0 mm
03:15 9.2 °C 7.1 °C 1025.6 hPa Calm     87 % 0 mm
03:20 9.1 °C 7.1 °C 1026 hPa Calm     87 % 0 mm
03:25 9.1 °C 7 °C 1026 hPa Calm     87 % 0 mm
03:30 9 °C 6.9 °C 1025.6 hPa Calm   1.9 km/h 87 % 0 mm
03:35 9 °C 6.9 °C 1025.6 hPa Calm     87 % 0 mm
03:40 8.9 °C 7.1 °C 1025.6 hPa Calm     88 % 0 mm
03:45 8.9 °C 7.1 °C 1026 hPa Calm     88 % 0 mm
03:50 8.8 °C 6.9 °C 1026 hPa Calm     88 % 0 mm
03:55 8.8 °C 6.8 °C 1026 hPa Calm     87 % 0 mm
04:00 8.8 °C 6.7 °C 1026 hPa Calm     87 % 0 mm
04:05 8.7 °C 6.8 °C 1026 hPa Calm     88 % 0 mm
04:10 8.7 °C 6.8 °C 1026 hPa Calm     88 % 0 mm
04:15 8.6 °C 6.7 °C 1026 hPa Calm     88 % 0 mm
04:20 8.6 °C 6.7 °C 1026 hPa Calm     88 % 0 mm
04:25 8.5 °C 6.6 °C 1026 hPa Calm     88 % 0 mm
04:30 8.4 °C 6.6 °C 1026 hPa Calm     88 % 0 mm
04:35 8.4 °C 6.5 °C 1026 hPa Calm     88 % 0 mm
04:40 8.3 °C 6.6 °C 1026 hPa Calm     89 % 0 mm
04:45 8.3 °C 6.6 °C 1026 hPa Calm     89 % 0 mm
04:50 8.3 °C 6.6 °C 1026 hPa Calm     89 % 0 mm
04:55 8.2 °C 6.5 °C 1026.3 hPa Calm     89 % 0 mm
05:00 8.2 °C 6.6 °C 1026.3 hPa Calm     90 % 0 mm
05:05 8.2 °C 6.6 °C 1026.3 hPa Calm     90 % 0 mm
05:10 8.1 °C 6.4 °C 1026.6 hPa Calm     89 % 0 mm
05:15 8.1 °C 6.5 °C 1026.3 hPa Calm     90 % 0 mm
05:20 8 °C 6.4 °C 1026.6 hPa Calm     90 % 0 mm
05:25 8 °C 6.4 °C 1026.6 hPa Calm     90 % 0 mm
05:30 7.9 °C 6.4 °C 1027 hPa Calm     90 % 0 mm
05:35 7.9 °C 6.3 °C 1027 hPa Calm     90 % 0 mm
05:41 7.9 °C 6.3 °C 1026.6 hPa Calm     90 % 0 mm
05:46 7.8 °C 6.3 °C 1026.6 hPa Calm     90 % 0 mm
05:51 7.8 °C 6.3 °C 1026.6 hPa Calm     90 % 0 mm
05:56 7.8 °C 6.4 °C 1026.6 hPa Calm     91 % 0 mm
06:01 7.9 °C 6.5 °C 1026.6 hPa Calm     91 % 0 mm
06:06 7.9 °C 6.5 °C 1026.6 hPa Calm     91 % 0 mm
06:11 7.9 °C 6.7 °C 1026.6 hPa Calm     92 % 0 mm
06:16 8 °C 6.8 °C 1026.6 hPa Calm   1.6 km/h 92 % 0 mm
06:21 8.1 °C 6.9 °C 1027 hPa Calm     92 % 0 mm
06:26 8.2 °C 7.2 °C 1027 hPa Calm   1.6 km/h 93 % 0 mm
06:31 8.3 °C 7.3 °C 1027.3 hPa Calm     93 % 0 mm
06:36 8.6 °C 7.7 °C 1027.7 hPa Calm     94 % 0 mm
06:41 8.7 °C 7.8 °C 1027.7 hPa Calm     94 % 0 mm
06:46 8.9 °C 8 °C 1027.7 hPa Calm     94 % 0 mm
06:51 9.1 °C 8.3 °C 1027.7 hPa Calm     95 % 0 mm
06:56 9.4 °C 8.6 °C 1027.7 hPa Calm     95 % 0 mm
07:01 9.8 °C 9 °C 1027.3 hPa Calm     95 % 0 mm
07:06 10.2 °C 9.6 °C 1027.7 hPa Calm   1.6 km/h 96 % 0 mm
07:11 10.6 °C 10 °C 1027.7 hPa Calm     96 % 0 mm
07:16 11.2 °C 10.6 °C 1027.7 hPa Calm     96 % 0 mm
07:21 11.5 °C 10.8 °C 1027.3 hPa Calm   1.6 km/h 96 % 0 mm
07:26 11.8 °C 11.2 °C 1027.3 hPa Calm   3.2 km/h 96 % 0 mm
07:31 12.2 °C 11.4 °C 1027 hPa Calm   1.6 km/h 95 % 0 mm
07:36 12.7 °C 11.7 °C 1027.3 hPa NW 3.2 km/h 4.8 km/h 94 % 0 mm
07:41 13.1 °C 11.8 °C 1027.7 hPa Calm   3.7 km/h 92 % 0 mm
07:46 13.4 °C 12 °C 1027.3 hPa ENE 0.8 km/h 3.2 km/h 91 % 0 mm
07:51 13.6 °C 11.7 °C 1027.7 hPa NE 2.1 km/h 4.8 km/h 88 % 0 mm
07:56 13.8 °C 11.7 °C 1027.3 hPa NE 0.2 km/h 1.9 km/h 87 % 0 mm
08:01 14.1 °C 12 °C 1027.3 hPa NE 0.3 km/h 1.9 km/h 87 % 0 mm
08:06 14.3 °C 11.8 °C 1027 hPa Calm     85 % 0 mm
08:11 14.6 °C 11.7 °C 1027.3 hPa NE 0.5 km/h 1.9 km/h 83 % 0 mm
08:16 14.8 °C 11.7 °C 1027 hPa NE 0.5 km/h 1.9 km/h 82 % 0 mm
08:21 14.9 °C 11.7 °C 1027.3 hPa ENE 4.3 km/h 8 km/h 81 % 0 mm
08:26 15.1 °C 11.8 °C 1027.3 hPa NE 2.4 km/h 5.6 km/h 81 % 0 mm
08:31 15.2 °C 11.7 °C 1027.3 hPa NE 4.2 km/h 11.1 km/h 80 % 0 mm
08:33 15.2 °C 11.7 °C 1027.3 hPa NE 0.8 km/h 1.9 km/h 80 % 0 mm
08:38 15.2 °C 11.8 °C 1027.3 hPa NE 1.4 km/h 6.4 km/h 80 % 0 mm
08:43 15.2 °C 11.6 °C 1027.3 hPa NE 4.5 km/h 8 km/h 79 % 0 mm
08:48 15.1 °C 11.5 °C 1027.3 hPa NE 6.4 km/h 11.1 km/h 79 % 0 mm
08:53 15.1 °C 11.2 °C 1027.3 hPa ENE 5 km/h 5.6 km/h 78 % 0 mm
08:58 15 °C 10.6 °C 1027.7 hPa ENE 2.1 km/h 7.4 km/h 75 % 0 mm
09:03 15.1 °C 10.7 °C 1027.7 hPa ENE 4.8 km/h 7.4 km/h 75 % 0 mm
09:08 15.1 °C 10.8 °C 1027.7 hPa North 3.2 km/h 5.6 km/h 76 % 0 mm
09:14 15.2 °C 10.8 °C 1027.7 hPa ENE 3.9 km/h 5.6 km/h 75 % 0 mm
09:19 15.3 °C 10.1 °C 1027.7 hPa ENE 3.4 km/h 7.4 km/h 71 % 0 mm
09:24 15.4 °C 10.4 °C 1027.7 hPa NE 3.5 km/h 5.6 km/h 72 % 0 mm
09:29 15.5 °C 10.4 °C 1027.7 hPa ENE 5 km/h 11.3 km/h 72 % 0 mm
09:34 15.6 °C 10.8 °C 1027.7 hPa NNE 4 km/h 7.4 km/h 73 % 0 mm
09:39 15.9 °C 11.3 °C 1027.7 hPa NE 3.7 km/h 9.3 km/h 74 % 0 mm
09:44 16.3 °C 11.4 °C 1027.7 hPa NE 6.1 km/h 7.4 km/h 73 % 0 mm
09:49 16.4 °C 11.4 °C 1028 hPa NE 4.5 km/h 7.4 km/h 72 % 0 mm
09:54 16.7 °C 11.2 °C 1028 hPa NE 2.7 km/h 5.6 km/h 70 % 0 mm
09:59 17 °C 11.7 °C 1028 hPa NE 2.4 km/h 7.4 km/h 71 % 0 mm
10:04 17.4 °C 12.1 °C 1028 hPa ENE 4.8 km/h 9.3 km/h 71 % 0 mm
10:09 17.7 °C 11.7 °C 1027.7 hPa ENE 6.4 km/h 11.3 km/h 68 % 0 mm
10:14 17.6 °C 12.2 °C 1027.7 hPa ENE 5 km/h 8 km/h 71 % 0 mm
10:19 17.6 °C 12.1 °C 1027.7 hPa NE 5.6 km/h 9.3 km/h 70 % 0 mm
10:24 17.8 °C 12.3 °C 1027.7 hPa ENE 5.5 km/h 13 km/h 70 % 0 mm
10:29 18.2 °C 12.6 °C 1027.7 hPa ENE 6.1 km/h 13 km/h 70 % 0 mm
10:35 18.5 °C 12.3 °C 1027.7 hPa ENE 6.4 km/h 11.3 km/h 67 % 0 mm
10:40 18.4 °C 12 °C 1027.7 hPa ENE 6.6 km/h 11.1 km/h 66 % 0 mm
10:45 18.5 °C 12.3 °C 1027.7 hPa ENE 5.8 km/h 13 km/h 67 % 0 mm
10:50 18.4 °C 12 °C 1027.7 hPa ENE 3.9 km/h 11.1 km/h 66 % 0 mm
10:55 18.5 °C 12.3 °C 1027.7 hPa ENE 7.7 km/h 13 km/h 67 % 0 mm
11:00 18.8 °C 13.4 °C 1027.7 hPa ENE 2.9 km/h 5.6 km/h 71 % 0 mm
11:05 18.9 °C 12.2 °C 1027.7 hPa ENE 3.9 km/h 11.1 km/h 65 % 0 mm
11:10 19.1 °C 12.3 °C 1027.7 hPa ENE 4 km/h 9.3 km/h 65 % 0 mm
11:11 19.1 °C 12.3 °C 1027.7 hPa ENE 3.5 km/h 9.3 km/h 65 % 0 mm
11:16 19.3 °C 13.1 °C 1028 hPa ENE 7.7 km/h 16.7 km/h 67 % 0 mm
11:21 19.2 °C 12.2 °C 1027.7 hPa ENE 9.5 km/h 18.5 km/h 64 % 0 mm
11:26 18.8 °C 12.5 °C 1027.7 hPa NE 5.1 km/h 13 km/h 67 % 0 mm
11:31 18.9 °C 12.4 °C 1027.7 hPa ESE 6.4 km/h 9.3 km/h 66 % 0 mm
11:36 19.1 °C 12.3 °C 1027.7 hPa ENE 5.5 km/h 11.1 km/h 65 % 0 mm
11:41 19.3 °C 13.3 °C 1027.7 hPa ENE 5 km/h 9.3 km/h 68 % 0 mm
11:46 19.3 °C 12.3 °C 1027.7 hPa NE 8 km/h 16.7 km/h 64 % 0 mm
11:56 19.1 °C 13.1 °C 1027.3 hPa ENE 7.7 km/h 11.1 km/h 68 % 0 mm
12:01 19.3 °C 12.3 °C 1027 hPa ENE 4.7 km/h 8 km/h 64 % 0 mm
12:07 19.2 °C 12.9 °C 1027 hPa ENE 6.1 km/h 14.8 km/h 67 % 0 mm
12:12 19.2 °C 12.9 °C 1027 hPa ENE 4.5 km/h 7.4 km/h 67 % 0 mm
12:17 19.2 °C 12.2 °C 1027 hPa NE 5.6 km/h 11.1 km/h 64 % 0 mm
12:22 19.3 °C 13.3 °C 1027 hPa North 1.4 km/h 7.4 km/h 68 % 0 mm
12:27 19.6 °C 13.8 °C 1027 hPa ENE 3.1 km/h 7.4 km/h 69 % 0 mm
12:32 19.7 °C 13.1 °C 1027 hPa North 8.5 km/h 12.9 km/h 66 % 0 mm
12:37 19.7 °C 13.2 °C 1027 hPa NNE 4.2 km/h 7.4 km/h 66 % 0 mm
12:42 19.8 °C 13.3 °C 1027 hPa NNE 5.3 km/h 13 km/h 66 % 0 mm
12:47 19.9 °C 13.3 °C 1026.6 hPa SE 4.2 km/h 9.3 km/h 66 % 0 mm
12:52 20.2 °C 14.1 °C 1026.6 hPa ENE 5 km/h 13 km/h 68 % 0 mm
12:57 20.2 °C 12.7 °C 1026.3 hPa ENE 7.6 km/h 13 km/h 62 % 0 mm
13:02 19.8 °C 12.8 °C 1026.3 hPa ENE 4.5 km/h 11.1 km/h 64 % 0 mm
13:07 19.8 °C 13.1 °C 1026.3 hPa NE 8.5 km/h 13 km/h 65 % 0 mm
13:12 19.6 °C 13.3 °C 1026.3 hPa ENE 6.1 km/h 11.1 km/h 67 % 0 mm
13:17 19.8 °C 13.4 °C 1026.3 hPa ENE 4.5 km/h 11.1 km/h 67 % 0 mm
13:22 19.8 °C 11.8 °C 1026.3 hPa ENE 5.6 km/h 13 km/h 60 % 0 mm
13:27 19.7 °C 12 °C 1026.3 hPa ENE 0.6 km/h 13 km/h 61 % 0 mm
13:32 19.8 °C 12.8 °C 1026 hPa ENE 4.3 km/h 8 km/h 64 % 0 mm
13:37 19.8 °C 12.6 °C 1026 hPa ENE 2.9 km/h 6.4 km/h 63 % 0 mm
13:42 19.9 °C 12.2 °C 1026 hPa NE 2.7 km/h 11.1 km/h 61 % 0 mm
13:47 19.9 °C 10.9 °C 1026 hPa NE 1.1 km/h 3.7 km/h 56 % 0 mm
13:52 20.1 °C 12.3 °C 1026.3 hPa ENE 0.5 km/h 5.6 km/h 61 % 0 mm
13:57 20.3 °C 11.3 °C 1026 hPa ENE 0.6 km/h 5.6 km/h 56 % 0 mm
14:02 20.5 °C 11.9 °C 1026 hPa ENE 1.9 km/h 3.7 km/h 58 % 0 mm
14:07 20.8 °C 12.4 °C 1026 hPa Calm   1.9 km/h 59 % 0 mm
14:12 21.1 °C 7.3 °C 1026 hPa SSE 3.2 km/h 8 km/h 41 % 0 mm
14:17 21.4 °C 7.6 °C 1026 hPa SE 3.7 km/h 11.3 km/h 41 % 0 mm
14:22 21.3 °C 4.8 °C 1026 hPa SE 0.6 km/h 3.7 km/h 34 % 0 mm
14:27 21.2 °C 5.6 °C 1026 hPa SE 5.1 km/h 17.7 km/h 36 % 0 mm
14:32 21.2 °C 6.7 °C 1026 hPa SE 0.2 km/h 5.6 km/h 39 % 0 mm
14:37 21.3 °C 4.8 °C 1026 hPa SE 3.5 km/h 9.3 km/h 34 % 0 mm
14:42 21.2 °C 5.5 °C 1025.6 hPa SSW 2.9 km/h 18.5 km/h 36 % 0 mm
14:48 21.1 °C 6.6 °C 1025.6 hPa WSW 0.8 km/h 5.6 km/h 39 % 0 mm
14:53 21.2 °C 4.2 °C 1025.6 hPa SE 7.6 km/h 9.7 km/h 33 % 0 mm
14:58 21.3 °C 6.1 °C 1025.6 hPa WSW 1.1 km/h 5.6 km/h 37 % 0 mm
15:03 21.5 °C 4.9 °C 1025.6 hPa ESE 5.6 km/h 11.1 km/h 34 % 0 mm
15:08 21.6 °C 6.3 °C 1025.6 hPa SE 1.3 km/h 11.3 km/h 37 % 0 mm
15:13 21.4 °C 4.5 °C 1025.6 hPa SSE 2.3 km/h 7.4 km/h 33 % 0 mm
15:23 21.1 °C 2.8 °C 1025.3 hPa SSE 7.7 km/h 14.8 km/h 30 % 0 mm
15:28 20.5 °C 3.7 °C 1025.3 hPa SE 8 km/h 14.8 km/h 33 % 0 mm
15:33 20.4 °C 4.1 °C 1025.3 hPa SE 4.5 km/h 19.3 km/h 34 % 0 mm
15:38 20.3 °C 3.1 °C 1025.3 hPa SSE 14.2 km/h 19.3 km/h 32 % 0 mm
15:43 20.2 °C 5.1 °C 1025.3 hPa SSE 9.3 km/h 16.1 km/h 37 % 0 mm
15:48 20.2 °C 5 °C 1025.3 hPa SSE 1.9 km/h 6.4 km/h 37 % 0 mm
15:53 20.3 °C 4.7 °C 1024.9 hPa SSE 4 km/h 9.7 km/h 36 % 0 mm
15:58 20.4 °C 4.8 °C 1024.9 hPa ESE 5.5 km/h 11.1 km/h 36 % 0 mm
16:03 20.4 °C 4.1 °C 1025.3 hPa SE 7.6 km/h 13 km/h 34 % 0 mm
16:08 20.5 °C 4.1 °C 1025.3 hPa South 14.3 km/h 22.2 km/h 34 % 0 mm
16:13 20.3 °C 3.9 °C 1025.3 hPa SE 1.8 km/h 7.4 km/h 34 % 0 mm
16:18 20.2 °C 3.4 °C 1025.3 hPa SE 6.9 km/h 9.7 km/h 33 % 0 mm
16:20 20.2 °C 3.8 °C 1024.9 hPa South 2.6 km/h 9.3 km/h 34 % 0 mm
16:25 20 °C 4.4 °C 1024.9 hPa ESE 5.6 km/h 9.3 km/h 36 % 0 mm
16:30 19.8 °C 3.1 °C 1024.9 hPa SE 9.5 km/h 14.5 km/h 33 % 0 mm
16:35 19.5 °C 4.4 °C 1024.9 hPa SSE 6 km/h 11.1 km/h 37 % 0 mm
16:40 19.4 °C 3.9 °C 1024.9 hPa SE 1.9 km/h 13 km/h 36 % 0 mm
16:45 19.3 °C 3.4 °C 1024.6 hPa SE 10 km/h 16.7 km/h 35 % 0 mm
16:50 19.1 °C 4.4 °C 1024.6 hPa SSE 1.8 km/h 3.7 km/h 38 % 0 mm
16:55 18.9 °C 3.9 °C 1024.6 hPa SSW 2.1 km/h 5.6 km/h 37 % 0 mm
17:00 18.9 °C 3.6 °C 1024.6 hPa SSE 8.4 km/h 14.8 km/h 36 % 0 mm
17:05 18.7 °C 3.7 °C 1024.6 hPa SE 5.1 km/h 14.8 km/h 37 % 0 mm
17:10 18.5 °C 3.5 °C 1024.6 hPa SE 7.6 km/h 18.5 km/h 37 % 0 mm
17:15 18.3 °C 3.3 °C 1024.6 hPa SSE 3.9 km/h 18.5 km/h 37 % 0 mm
17:20 18.2 °C 4 °C 1024.6 hPa SSE 2.7 km/h 9.7 km/h 39 % 0 mm
17:25 18.1 °C 3.9 °C 1024.6 hPa SSW 3.1 km/h 5.6 km/h 39 % 0 mm
17:30 17.9 °C 3.4 °C 1024.6 hPa SSW 5.3 km/h 7.4 km/h 38 % 0 mm
17:35 17.9 °C 3 °C 1024.6 hPa ESE 11.3 km/h 14.8 km/h 37 % 0 mm
17:40 17.7 °C 3.9 °C 1024.3 hPa SSE 5.6 km/h 13 km/h 40 % 0 mm
17:45 17.6 °C 4.2 °C 1024.3 hPa SSW 2.7 km/h 6.4 km/h 41 % 0 mm
17:50 17.5 °C 3.7 °C 1024.3 hPa SE 3.9 km/h 7.4 km/h 40 % 0 mm
17:55 17.4 °C 4.4 °C 1024.3 hPa West 3.1 km/h 5.6 km/h 42 % 0 mm
18:00 17.4 °C 3.7 °C 1024.3 hPa South 1.8 km/h 5.6 km/h 40 % 0 mm
18:05 17.2 °C 3.5 °C 1024.3 hPa SE 6 km/h 11.1 km/h 40 % 0 mm
18:10 17.2 °C 3.4 °C 1024.3 hPa SSE 1.6 km/h 9.7 km/h 40 % 0 mm
18:15 17.1 °C 3.7 °C 1024.3 hPa Calm   11.3 km/h 41 % 0 mm
18:20 17 °C 4 °C 1024.3 hPa SE 9.7 km/h 19.3 km/h 42 % 0 mm
18:25 16.9 °C 3.6 °C 1024.3 hPa SE 8 km/h 19.3 km/h 41 % 0 mm
18:30 16.7 °C 3.7 °C 1024.6 hPa SSE 3.2 km/h 16.1 km/h 42 % 0 mm
18:35 16.7 °C 3.7 °C 1024.6 hPa SSE 12.4 km/h 13 km/h 42 % 0 mm
18:40 16.6 °C 4.2 °C 1024.6 hPa Calm   5.6 km/h 44 % 0 mm
18:45 16.6 °C 3.9 °C 1024.9 hPa SSW 1 km/h 5.6 km/h 43 % 0 mm
18:50 16.5 °C 3.9 °C 1024.9 hPa SW 4 km/h 5.6 km/h 43 % 0 mm
18:55 16.4 °C 3.8 °C 1024.6 hPa SW 1.3 km/h 5.6 km/h 43 % 0 mm
19:00 16.3 °C 4 °C 1024.6 hPa Calm   3.7 km/h 44 % 0 mm
19:05 16.2 °C 3.6 °C 1024.6 hPa SSE 5.5 km/h 13 km/h 43 % 0 mm
19:10 16.1 °C 3.4 °C 1024.6 hPa SE 5.1 km/h 8 km/h 43 % 0 mm
19:16 15.9 °C 3.7 °C 1024.6 hPa SE 0.3 km/h 5.6 km/h 44 % 0 mm
19:21 15.7 °C 3.5 °C 1024.9 hPa SSE 1.6 km/h 9.7 km/h 44 % 0 mm
19:26 15.6 °C 3.3 °C 1024.9 hPa SE 3.2 km/h 12.9 km/h 44 % 0 mm
19:31 15.4 °C 3.2 °C 1024.6 hPa Calm   8 km/h 44 % 0 mm
19:36 15.3 °C 3.4 °C 1024.6 hPa SE 0.3 km/h   45 % 0 mm
19:41 15.2 °C 3.7 °C 1024.6 hPa Calm   4.8 km/h 46 % 0 mm
19:46 15.1 °C 3.6 °C 1024.6 hPa SE 1.6 km/h 8 km/h 46 % 0 mm
19:51 14.9 °C 3.4 °C 1024.3 hPa SE 4.8 km/h 9.7 km/h 46 % 0 mm
19:56 14.8 °C 3.6 °C 1024.3 hPa SE 3.2 km/h 9.7 km/h 47 % 0 mm
20:01 14.7 °C 3.8 °C 1024.3 hPa SE 1.8 km/h 5.6 km/h 48 % 0 mm
20:06 14.6 °C 4 °C 1024.6 hPa SE 0.8 km/h 3.7 km/h 49 % 0 mm
20:11 14.6 °C 4.2 °C 1024.6 hPa Calm     50 % 0 mm
20:16 14.5 °C 4.2 °C 1024.6 hPa WSW 0.6 km/h 4.8 km/h 50 % 0 mm
20:21 14.4 °C 4.4 °C 1024.3 hPa SSW 2.6 km/h 5.6 km/h 51 % 0 mm
20:26 14.3 °C 4.6 °C 1024.3 hPa Calm   1.9 km/h 52 % 0 mm
20:31 14.2 °C 4.4 °C 1024.6 hPa Calm   3.7 km/h 52 % 0 mm
20:36 14.1 °C 4.7 °C 1024.6 hPa SE 0.3 km/h 1.9 km/h 53 % 0 mm
20:41 14 °C 4.6 °C 1024.6 hPa Calm     53 % 0 mm
20:46 13.9 °C 4.8 °C 1024.6 hPa SE 0.3 km/h 1.9 km/h 54 % 0 mm
20:51 13.9 °C 5 °C 1024.3 hPa SE 0.5 km/h 3.2 km/h 55 % 0 mm
20:56 13.8 °C 4.9 °C 1024.3 hPa Calm     55 % 0 mm
21:01 13.8 °C 4.9 °C 1024.3 hPa SE 1.3 km/h 3.7 km/h 55 % 0 mm
21:06 13.7 °C 5.1 °C 1024.3 hPa SE 0.2 km/h 3.7 km/h 56 % 0 mm
21:11 13.7 °C 5.1 °C 1024.3 hPa SE 1.6 km/h 4.8 km/h 56 % 0 mm
21:16 13.7 °C 5.6 °C 1024.3 hPa Calm   1.9 km/h 58 % 0 mm
21:21 13.6 °C 5.7 °C 1024.3 hPa Calm     59 % 0 mm
21:26 13.6 °C 5.2 °C 1024.3 hPa SE 0.3 km/h 1.9 km/h 57 % 0 mm
21:31 13.6 °C 5.2 °C 1024.3 hPa Calm     57 % 0 mm
21:36 13.5 °C 5.4 °C 1024.3 hPa Calm   1.9 km/h 58 % 0 mm
21:41 13.5 °C 5.4 °C 1024.3 hPa SE 0.3 km/h 1.9 km/h 58 % 0 mm
21:46 13.4 °C 5.3 °C 1024.3 hPa SE 2.1 km/h 2.1 km/h 58 % 0 mm
21:51 13.4 °C 5.1 °C 1024.3 hPa SE 4.7 km/h 7.4 km/h 57 % 0 mm
21:56 13.4 °C 5.3 °C 1023.9 hPa SE 2.1 km/h 7.4 km/h 58 % 0 mm
22:02 13.4 °C 5.6 °C 1023.9 hPa ESE 1.9 km/h 4.8 km/h 59 % 0 mm
22:07 13.4 °C 5.3 °C 1023.9 hPa SE 2.1 km/h 5.6 km/h 58 % 0 mm
22:12 13.4 °C 5.6 °C 1023.9 hPa SE 4.2 km/h 5.6 km/h 59 % 0 mm
22:17 13.4 °C 5.3 °C 1023.9 hPa SE 5.6 km/h 7.4 km/h 58 % 0 mm
22:23 13.3 °C 5.5 °C 1023.9 hPa Calm   1.6 km/h 59 % 0 mm
22:28 13.4 °C 5.6 °C 1023.9 hPa SSE 0.3 km/h 3.2 km/h 59 % 0 mm
22:33 13.3 °C 5.5 °C 1023.9 hPa Calm   3.7 km/h 59 % 0 mm
22:38 13.3 °C 5.5 °C 1023.9 hPa Calm   1.9 km/h 59 % 0 mm
22:43 13.3 °C 5.5 °C 1023.9 hPa SSE 0.3 km/h 1.9 km/h 59 % 0 mm
22:48 13.4 °C 5.8 °C 1023.9 hPa Calm     60 % 0 mm
22:53 13.4 °C 5.8 °C 1023.9 hPa Calm     60 % 0 mm
22:58 13.4 °C 5.6 °C 1023.9 hPa SSE 0.8 km/h 3.7 km/h 59 % 0 mm
23:03 13.4 °C 5.6 °C 1023.6 hPa SSE 1 km/h 3.7 km/h 59 % 0 mm
23:08 13.4 °C 5.6 °C 1023.6 hPa ESE 1.3 km/h 3.7 km/h 59 % 0 mm
23:13 13.5 °C 5.6 °C 1023.6 hPa SSE 2.3 km/h 5.6 km/h 59 % 0 mm
23:18 13.5 °C 5.6 °C 1023.6 hPa SSE 0.6 km/h 3.7 km/h 59 % 0 mm
23:23 13.6 °C 5.9 °C 1023.6 hPa SSE 0.3 km/h 3.2 km/h 60 % 0 mm
23:28 13.6 °C 5.7 °C 1023.6 hPa SSE 1.9 km/h 5.6 km/h 59 % 0 mm
23:33 13.6 °C 5.7 °C 1023.6 hPa Calm   1.9 km/h 59 % 0 mm
23:38 13.6 °C 6 °C 1023.6 hPa SSE 0.3 km/h 1.6 km/h 60 % 0 mm
23:43 13.6 °C 5.9 °C 1023.6 hPa WSW 1 km/h 3.7 km/h 60 % 0 mm
23:48 13.6 °C 5.7 °C 1023.6 hPa SSE 0.2 km/h 1.9 km/h 59 % 0 mm
23:53 13.6 °C 5.9 °C 1023.6 hPa Calm   3.7 km/h 60 % 0 mm
23:58 13.6 °C 6 °C 1023.6 hPa Calm   1.9 km/h 60 % 0 mm
Crab Meadow Weather
Compliments of Weather Underground - 3 mb

Script developed by  Jim McMurry - jmcmurry@mwt.net Adapted for the template by  Wim van der Kuil - Leuven-Template.eu

Recycling: Every ton of mixed paper recycled can save the energy equivalent of 185 gallons of gas.